Weather in Tumba

Russia / Republic of Karelia     63°14′58″N   32°01′49″E
temp.,
°C
wind,
m/s
gust,
m/s
humid.,
%
clouds,
%
prec.,
mm/h
press.,
hPa
HPBL,
m
31 july, sat
sat3100:00+12ssw279434 0.0 996172
03:00+11s2396100 0.0 99561
06:00+12sse148981 0.0 994118
09:00+17s246893 0.0 994632
12:00+20ssw225827 0.9 9931203
15:00+20sw226330 2.9 9941182
18:00+19wsw24755 1.7 995860
21:00+15sw259023 2.3 996112
1 august, sun
sun100:00+13sw22955 0.0 99838
03:00+12sw22965 0.0 99938
06:00+13sw139477 0.0 999108
09:00+17ssw247787 0.0 999390
12:00+18sw267064 0.0 999350
15:00+22ssw355072 0.4 9981831
18:00+17ssw5987100 3.4 998527
21:00+15ssw269644 4.3 998228
2 august, mon
mon200:00+13s2596100 0.0 998111
03:00+12ssw23975 0.0 99950
06:00+13ssw399720 0.0 999306
09:00+14sw4791100 0.0 1000565
12:00+15sw4891100 0.4 1001816
15:00+19sw3762100 0.4 10011447
18:00+21sw3649100 0.0 10002016
21:00+16ssw2374100 0.0 100092
3 august, tue
tue300:00+15s1180100 0.0 100011
03:00+13se1191100 0.7 99910
06:00+13ene1195100 0.8 99833
09:00+15nnw1186100 2.2 99722
12:00+13nw3693100 1.5 998221
15:00+17nw237718 1.8 999744
18:00+16wnw35859 2.3 1000681
21:00+12wnw499558 3.0 1002416
4 august, wed
wed400:00+10wnw4795100 0.1 1004546
03:00+9nw4792100 0.1 1006630
06:00+8nw3789100 0.0 1008706
09:00+9nw4780100 0.1 1011950
12:00+11nw466597 0.0 10131068
15:00+14n365233 0.0 10141550
18:00+15ne334867 0.0 10141102
21:00+11se226892 0.0 101656